User: anonymous   Login
Location: Whitehorse
(60.7170°N, 135.0500°W)
Time: 20:37:50
(UTC-07:00)
Language:

Cosmos 2219 Rocket - Orbit

View from above orbital plane
View from above orbital plane
View from above satellite
View from above satellite

Ground track
Ground track

The orbit data is extracted from the following two-line orbital elements,

1 22220U 92076B   17176.57979535 +.00000085 +00000-0 +66918-4 0  9991
2 22220 071.0008 041.5852 0015029 261.6919 116.7272 14.16417990271639
Epoch (UTC): 25 June 2017 13:54:54
Eccentricity: 0.0015029
inclination: 71.0008°
perigee height: 826 km
apogee height: 848 km
right ascension of ascending node: 41.5852°
argument of perigee: 261.6919°
revolutions per day: 14.16417990
mean anomaly at epoch: 116.7272°
orbit number at epoch: 27163

The dashed part of the orbit path shows where the satellite is in the earth's shadow,  

DLR